TWB4049 RKPC-RKSS

Flight info

Callsign TWB4049
Flight time 0h 41m
Altitude 29000
Route KAMIT2E KAMIT Y722 OLMEN OLMEN2T
Aircraft B77W/H-SDE1E2E3FGHIJ2J3J4J5M1RWXY/LB1D1

Departure

Time 2025-09-09 13:49
Airport Jeju International Airport (RKPC)

Arrival

Time 2025-09-09 14:31
Airport Gimpo International Airport (RKSS)
Time Latitude Longitude Altitude Speed Heading
2025-09-09 13:32 33.50683 126.49112 98 ft 0 kts 152°
2025-09-09 13:39 33.50693 126.49106 100 ft 2 kts 153°
2025-09-09 13:40 33.50723 126.49089 99 ft 2 kts 156°
2025-09-09 13:40 33.50768 126.49085 98 ft 1 kts 236°
2025-09-09 13:41 33.50770 126.49089 97 ft 0 kts 238°
2025-09-09 13:42 33.50769 126.49085 98 ft 4 kts 238°
2025-09-09 13:42 33.50707 126.48940 101 ft 11 kts 274°
2025-09-09 13:43 33.50796 126.48803 98 ft 11 kts 269°
2025-09-09 13:43 33.50717 126.48636 100 ft 12 kts 238°
2025-09-09 13:44 33.50624 126.48457 99 ft 16 kts 238°
2025-09-09 13:44 33.50480 126.48177 99 ft 23 kts 239°
2025-09-09 13:45 33.50282 126.47789 102 ft 17 kts 238°
2025-09-09 13:45 33.50157 126.47546 102 ft 17 kts 238°
2025-09-09 13:46 33.50096 126.47425 98 ft 17 kts 238°
2025-09-09 13:46 33.49971 126.47183 100 ft 17 kts 238°
2025-09-09 13:47 33.49901 126.46937 100 ft 15 kts 311°
2025-09-09 13:47 33.50050 126.46962 98 ft 14 kts 57°
2025-09-09 13:47 33.50139 126.47133 97 ft 46 kts 58°
2025-09-09 13:48 33.50991 126.48793 117 ft 174 kts 58°
2025-09-09 13:49 33.54228 126.53460 2273 ft 211 kts 43°
2025-09-09 13:49 33.56688 126.56132 2883 ft 257 kts 43°
2025-09-09 13:50 33.58030 126.57605 3580 ft 266 kts 43°
2025-09-09 13:50 33.60804 126.60678 5025 ft 279 kts 43°
2025-09-09 13:51 33.63727 126.63940 6486 ft 292 kts 42°
2025-09-09 13:51 33.66735 126.67311 7895 ft 300 kts 43°
2025-09-09 13:52 33.69855 126.70688 9262 ft 306 kts 31°
2025-09-09 13:52 33.76251 126.72032 10613 ft 338 kts
2025-09-09 13:53 33.80374 126.72423 10950 ft 376 kts
2025-09-09 13:53 33.85656 126.72961 12598 ft 383 kts
2025-09-09 13:54 33.88329 126.73243 13495 ft 386 kts
2025-09-09 13:54 33.91009 126.73525 14317 ft 388 kts
2025-09-09 13:55 33.99316 126.74399 16207 ft 411 kts
2025-09-09 13:55 34.05100 126.75018 17550 ft 421 kts
2025-09-09 13:56 34.10997 126.75651 18819 ft 430 kts
2025-09-09 13:56 34.20105 126.76628 20344 ft 448 kts
2025-09-09 13:57 34.26382 126.77303 21402 ft 458 kts
2025-09-09 13:57 34.32806 126.77979 22411 ft 468 kts
2025-09-09 13:58 34.36025 126.78317 22922 ft 473 kts
2025-09-09 13:58 34.42649 126.79015 23875 ft 481 kts
2025-09-09 13:59 34.49375 126.79728 24741 ft 488 kts
2025-09-09 14:01 34.76695 126.82639 28771 ft 500 kts 359°
2025-09-09 14:03 35.00924 126.85233 28981 ft 500 kts 359°
2025-09-09 14:05 35.30906 126.88481 28989 ft 497 kts 359°
2025-09-09 14:07 35.54900 126.91103 28986 ft 495 kts 359°
2025-09-09 14:09 35.85911 126.94511 28973 ft 480 kts 359°
2025-09-09 14:11 36.08343 126.97002 28620 ft 463 kts 358°
2025-09-09 14:12 36.29484 126.99379 22880 ft 412 kts 359°
2025-09-09 14:13 36.35119 127.00010 21916 ft 403 kts 359°
2025-09-09 14:13 36.40638 127.00394 21093 ft 393 kts 352°
2025-09-09 14:14 36.43366 127.00287 20697 ft 389 kts 352°
2025-09-09 14:14 36.48759 127.00029 19895 ft 385 kts 352°
2025-09-09 14:15 36.54085 126.99812 19092 ft 383 kts 353°
2025-09-09 14:15 36.59420 126.99614 18268 ft 382 kts 354°
2025-09-09 14:16 36.64693 126.99427 17397 ft 377 kts 354°
2025-09-09 14:16 36.72515 126.99240 16159 ft 373 kts
2025-09-09 14:17 36.77600 127.00365 15398 ft 370 kts 13°
2025-09-09 14:17 36.80075 127.01223 15024 ft 367 kts 13°
2025-09-09 14:18 36.84943 127.02935 14275 ft 363 kts 14°
2025-09-09 14:18 36.89782 127.04623 13490 ft 359 kts 14°
2025-09-09 14:19 36.94547 127.06273 12726 ft 352 kts 14°
2025-09-09 14:19 36.99224 127.07890 12006 ft 345 kts 15°
2025-09-09 14:19 37.01501 127.08677 11659 ft 342 kts 15°
2025-09-09 14:20 37.09420 127.11419 10439 ft 331 kts 16°
2025-09-09 14:21 37.13833 127.12950 9856 ft 323 kts 16°
2025-09-09 14:21 37.15947 127.13685 9693 ft 313 kts 16°
2025-09-09 14:22 37.21577 127.15640 9308 ft 278 kts 17°
2025-09-09 14:22 37.23415 127.16256 8720 ft 270 kts 12°
2025-09-09 14:23 37.26992 127.14924 8114 ft 289 kts 320°
2025-09-09 14:23 37.29831 127.11349 6853 ft 289 kts 317°
2025-09-09 14:24 37.32680 127.07761 6040 ft 289 kts 317°
2025-09-09 14:24 37.36818 127.02597 4829 ft 276 kts 317°
2025-09-09 14:25 37.39498 126.99292 4134 ft 258 kts 317°
2025-09-09 14:25 37.40738 126.97749 3830 ft 241 kts 317°
2025-09-09 14:26 37.42958 126.94966 3218 ft 212 kts 316°
2025-09-09 14:26 37.44922 126.92505 2711 ft 190 kts 316°
2025-09-09 14:27 37.46636 126.90353 2237 ft 162 kts 316°
2025-09-09 14:27 37.48230 126.88354 1839 ft 161 kts 315°
2025-09-09 14:28 37.49790 126.86394 1408 ft 158 kts 315°
2025-09-09 14:28 37.52136 126.83457 789 ft 156 kts 315°
2025-09-09 14:29 37.52894 126.82492 600 ft 155 kts 315°
2025-09-09 14:29 37.54400 126.80610 212 ft 152 kts 315°
2025-09-09 14:30 37.55794 126.78855 62 ft 108 kts 315°
2025-09-09 14:30 37.56366 126.78339 64 ft 13 kts 347°
2025-09-09 14:31 37.56449 126.78343 63 ft 0 kts 16°
2025-09-09 14:31 37.56560 126.78447 64 ft 22 kts 44°
2025-09-09 14:32 37.56662 126.78627 63 ft 10 kts 115°
2025-09-09 14:32 37.56413 126.78949 64 ft 19 kts 135°
2025-09-09 14:33 37.56316 126.79070 61 ft 19 kts 135°
2025-09-09 14:33 37.56125 126.79310 64 ft 19 kts 135°
2025-09-09 14:34 37.55952 126.79547 61 ft 16 kts 112°
2025-09-09 14:34 37.55917 126.79777 66 ft 12 kts 99°
2025-09-09 14:35 37.55890 126.79958 68 ft 9 kts 115°
2025-09-09 14:35 37.55827 126.80081 65 ft 8 kts 71°
2025-09-09 14:35 37.55863 126.80125 64 ft 5 kts 44°
2025-09-09 14:36 37.55884 126.80152 64 ft 1 kts 45°